Miscellaneous Local Product
Issued by NWS North Platte, NE

Home | Current Version | Previous Version | Text Only | Print | Product List | Glossary On
Versions: 1 2 3 4 5 6 7 8 9 10 11 12 13 14 15 16 17 18 19 20 21 22 23 24 25 26 27 28 29 30 31 32 33 34 35 36 37 38 39 40 41 42 43 44 45 46 47 48 49 50
000
AXUS43 KLBF 232110
MISLBF


WESTERN AND NORTH CENTRAL NEBRASKA HOURLY WEATHER ROUNDUP
NATIONAL WEATHER SERVICE NORTH PLATTE NE
400 PM CDT SUN JUL 23 2017

NOTE: "FAIR" INDICATES FEW OR NO CLOUDS BELOW 12,000 FEET WITH NO
SIGNIFICANT WEATHER AND/OR OBSTRUCTIONS TO VISIBILITY.

NOTE: STATIONS NOT REPORTING VARIABLES SUCH AS SKY/WEATHER OR
PRESSURE ARE PROVIDED BY RAWS AND APRS NETWORKS AND ARE NOT UNDER
NATIONAL WEATHER SERVICE QUALITY CONTROL.

...OBSERVATIONS IN AND NEAR THE EASTERN PANHANDLE OF NEBRASKA...

CITY           SKY/WX    TMP DP  RH WIND       PRES   REMARKS
PINE RIDGE     SUNNY     91  56  30 E8        30.04F
GORDON         FAIR      89  53  29 E13       30.06F
CHADRON        SUNNY     94  52  24 SE9       30.01F HX  91
ALLIANCE       MOSUNNY   94  46  19 SE7       30.06F HX  90
SIDNEY         SUNNY     94  42  16 VRB5      30.11F HX  90
CRESCENT LAKE    N/A     95  45  17 SW6G14      N/A  HX  91
$$

...OBSERVATIONS IN NORTHERN NEBRASKA AND FAR SOUTHERN SOUTH DAKOTA...

CITY           SKY/WX    TMP DP  RH WIND       PRES   REMARKS
WINNER         FAIR      91  49  23 VRB3      30.02F
VALENTINE      SUNNY     94  43  17 SE7       30.03F HX  90
THEDFORD       SUNNY     93  53  25 E10       30.05F HX  91
AINSWORTH      SUNNY     89  54  29 E5        30.05F
O`NEILL        SUNNY     83  60  46 CALM      30.04S
ORD            SUNNY     90  52  27 N6        30.00F
BROKEN BOW     SUNNY     90  58  33 MISG      30.03F
VALENTINE NWR    N/A     89  49  25 E5          N/A
HALSEY           N/A     93  50  22 E5G13       N/A  HX  90
BUTTE            N/A     83  55  38 NE3G12      N/A
CHAMBERS         N/A     88  59  37 N3          N/A
EWING            N/A     85  62  45 NE3         N/A
$$

...OBSERVATIONS IN SOUTHWEST NEBRASKA AND FAR NORTHEAST COLORADO...

CITY           SKY/WX    TMP DP  RH WIND       PRES   REMARKS
HOLYOKE        FAIR      95  46  18 S6        30.09F HX  91
IMPERIAL       SUNNY     96  40  14 VRB6      30.05F HX  92
OGALLALA       SUNNY     95  50  21 S6        30.04F HX  92
NORTH PLATTE   SUNNY     95  47  19 N7        30.02F HX  91
MCCOOK         SUNNY     95  52  23 E7        30.02F HX  92
LEXINGTON      SUNNY     88  62  41 E6        30.02F
STAPLETON        N/A     91  52  26 E3          N/A
GOTHENBURG       N/A     93  47  20 E3          N/A
CALLAWAY         N/A     96  67  38 CALM        N/A  HX 100
$$

...OBSERVATIONS IN CENTRAL LINCOLN COUNTY AREA...

CITY           SKY/WX    TMP DP  RH WIND       PRES   REMARKS
N.P. AIRPORT   SUNNY     95  47  19 N7        30.02F HX  91
N.P. DOWNTOWN    N/A     94  50  22 CALM        N/A  HX  91
N.P. SOUTHEAST   N/A     95  49  20 CALM        N/A  HX  92
N.P. HILLCREST   N/A     93  47  20 W5          N/A
$$

...SOME OBSERVATIONS FROM AROUND THE REGION...

CITY           SKY/WX    TMP DP  RH WIND       PRES   REMARKS
DENVER         CLOUDY    89  45  21 VRB7      30.15F
LIMON          SUNNY     86  45  23 E8        30.18F
ASPEN          CLOUDY    85  32  15 VRB5      30.27F
LARAMIE        CLOUDY    81  36  19 E12       30.27F
CASPER         SUNNY     94  28   9 SW12G17   30.09F
CHEYENNE       MOSUNNY   87  45  23 S10G22    30.21F
SCOTTSBLUFF    SUNNY     95  52  23 E13       30.05F HX  92
GRAND ISLAND   SUNNY     89  62  40 NE12      30.01S
OMAHA          SUNNY     90  61  37 N14       29.94F HX  90
SIOUX FALLS    MOSUNNY   80  61  52 N12       29.99F
PIERRE         SUNNY     88  47  24 N7        30.00F
RAPID CITY     SUNNY     91  46  21 SE13G18   30.04F
BISMARCK       SUNNY     83  55  38 CALM      30.01F
KANSAS CITY    MOSUNNY   91  74  57 CALM      29.91F HX 100
HILL CITY      SUNNY     95  63  34 E10       30.00F HX  96
WICHITA        MOSUNNY   93  69  45 NW10      29.93F HX  98
DODGE CITY     SUNNY     91  65  41 NE8       30.02F HX  93
OKLAHOMA CITY  PTSUNNY   94  68  42 NE9       29.87F THUNDER HX  98
DALLAS         PTSUNNY   99  71  40 SE22G30   29.82F THUNDER HX 107
AMARILLO       SUNNY     92  57  30 E20       30.03F HX  90
$$




USA.gov is the U.S. government's official web portal to all federal, state and local government web resources and services.